FW1155 Weather Reports


Display with metric or nautical units.
time (UTC)temp
F
wind
direction
speed
MPH
gust
MPH
rain 1hr
in
rain 24hr
in
rain mn
in
humidity
%
barometer
mb
20180821191857 97 281 5.0 10.0 0.00 0.00 0.00 46 1016.5
20180821191355 96 207 4.0 9.0 0.00 0.00 0.00 46 1016.7
20180821190857 96 148 5.0 10.0 0.00 0.00 0.00 45 1016.8
20180821190351 96 166 5.0 12.0 0.00 0.00 0.00 45 1016.8
20180821185852 96 210 5.0 12.0 0.00 0.00 0.00 45 1016.8
20180821185351 96 126 5.0 13.0 0.00 0.00 0.00 45 1016.9
20180821184850 96 183 7.0 13.0 0.00 0.00 0.00 46 1016.9
20180821184349 96 129 6.0 11.0 0.00 0.00 0.00 46 1017.0
20180821183849 95 176 5.0 9.0 0.00 0.00 0.00 47 1017.0
20180821183350 95 206 6.0 12.0 0.00 0.00 0.00 46 1017.1
20180821182847 95 186 6.0 12.0 0.00 0.00 0.00 47 1017.2
20180821182345 95 199 6.0 14.0 0.00 0.00 0.00 47 1017.2
20180821181845 95 257 5.0 14.0 0.00 0.00 0.00 49 1017.2
20180821181342 94 227 5.0 11.0 0.00 0.00 0.00 52 1017.3
20180821180842 94 233 5.0 11.0 0.00 0.00 0.00 52 1017.3
20180821180341 94 223 5.0 10.0 0.00 0.00 0.00 51 1017.3
20180821175841 94 208 5.0 10.0 0.00 0.00 0.00 53 1017.4
20180821175337 93 207 4.0 8.0 0.00 0.00 0.00 54 1017.5
20180821174837 93 221 4.0 9.0 0.00 0.00 0.00 55 1017.5
20180821174339 94 220 3.0 9.0 0.00 0.00 0.00 55 1017.5
20180821173836 93 288 5.0 11.0 0.00 0.00 0.00 55 1017.6
20180821173335 93 240 6.0 12.0 0.00 0.00 0.00 56 1017.6
20180821172835 93 205 5.0 12.0 0.00 0.00 0.00 57 1017.7
20180821172336 92 333 5.0 12.0 0.00 0.00 0.00 58 1017.8
20180821171837 92 225 5.0 8.0 0.00 0.00 0.00 58 1017.7
20180821171336 92 269 4.0 8.0 0.00 0.00 0.00 58 1017.9
20180821170832 92 215 4.0 7.0 0.00 0.00 0.00 58 1017.9
20180821170332 92 247 6.0 11.0 0.00 0.00 0.00 58 1017.9
20180821165832 92 275 6.0 13.0 0.00 0.00 0.00 60 1018.1
20180821165328 92 254 4.0 13.0 0.00 0.00 0.00 60 1018.0
20180821164828 92 293 5.0 11.0 0.00 0.00 0.00 60 1018.0
20180821164326 91 277 7.0 12.0 0.00 0.00 0.00 61 1018.1
20180821163824 91 277 5.0 12.0 0.00 0.00 0.00 62 1018.1
20180821163324 90 287 4.0 9.0 0.00 0.00 0.00 64 1018.2
20180821162824 90 252 6.0 9.0 0.00 0.00 0.00 64 1018.2
20180821162322 89 286 7.0 10.0 0.00 0.00 0.00 65 1018.2
20180821161821 89 197 5.0 10.0 0.00 0.00 0.00 64 1018.2
20180821161321 89 246 5.0 9.0 0.00 0.00 0.00 66 1018.2
20180821160817 89 229 5.0 9.0 0.00 0.00 0.00 68 1018.2
20180821160316 88 201 6.0 13.0 0.00 0.00 0.00 68 1018.3
20180821155816 88 224 8.0 13.0 0.00 0.00 0.00 68 1018.3
20180821155315 88 271 8.0 13.0 0.00 0.00 0.00 69 1018.4
20180821154815 88 254 9.0 12.0 0.00 0.00 0.00 69 1018.4
20180821154314 88 261 9.0 13.0 0.00 0.00 0.00 71 1018.4
20180821153814 88 283 8.0 13.0 0.00 0.00 0.00 72 1018.4
20180821153314 87 238 9.0 14.0 0.00 0.00 0.00 72 1018.4
20180821152813 87 246 8.0 14.0 0.00 0.00 0.00 73 1018.3
20180821152313 86 252 8.0 14.0 0.00 0.00 0.00 74 1018.3
20180821151814 86 244 9.0 13.0 0.00 0.00 0.00 76 1018.3
20180821151315 86 267 9.0 13.0 0.00 0.00 0.00 77 1018.3
20180821150813 86 286 8.0 13.0 0.00 0.00 0.00 78 1018.2
20180821150312 85 252 6.0 13.0 0.00 0.00 0.00 80 1018.2
20180821145816 85 212 7.0 12.0 0.00 0.00 0.00 80 1018.2
20180821145309 85 244 8.0 12.0 0.00 0.00 0.00 80 1018.2
20180821144807 85 256 8.0 12.0 0.00 0.00 0.00 81 1018.2
20180821144306 85 259 8.0 12.0 0.00 0.00 0.00 82 1018.2
20180821143803 84 257 7.0 12.0 0.00 0.00 0.00 82 1018.1
20180821143302 84 221 7.0 11.0 0.00 0.00 0.00 84 1018.1
20180821142802 84 248 8.0 11.0 0.00 0.00 0.00 84 1018.1
20180821142257 83 257 7.0 11.0 0.00 0.00 0.00 86 1018.1
20180821141754 83 264 5.0 11.0 0.00 0.00 0.00 87 1018.1
20180821141254 82 228 5.0 8.0 0.00 0.00 0.00 88 1018.1
20180821140755 82 252 5.0 8.0 0.00 0.00 0.00 89 1018.1
20180821140255 82 242 4.0 6.0 0.00 0.00 0.00 89 1018.1
20180821135754 81 249 4.0 6.0 0.00 0.00 0.00 90 1018.1
20180821135254 81 257 4.0 5.0 0.00 0.00 0.00 90 1018.0
20180821134754 81 263 2.0 5.0 0.00 0.00 0.00 90 1018.0
20180821134254 80 261 2.0 4.0 0.00 0.00 0.00 91 1017.9
20180821133754 80 261 3.0 4.0 0.00 0.00 0.00 91 1017.9
20180821133254 80 261 1.0 4.0 0.00 0.00 0.00 91 1017.9
20180821132751 80 261 0.0 4.0 0.00 0.00 0.00 91 1017.8
20180821132251 80 261 0.0 0.0 0.00 0.00 0.00 91 1017.8
20180821131751 80 261 0.0 0.0 0.00 0.00 0.00 91 1017.7
20180821131248 79 261 0.0 0.0 0.00 0.00 0.00 91 1017.7
20180821130748 79 261 0.0 0.0 0.00 0.00 0.00 91 1017.7
20180821130247 79 261 0.0 0.0 0.00 0.00 0.00 92 1017.6
20180821125743 79 261 0.0 0.0 0.00 0.00 0.00 92 1017.6
20180821125244 78 261 0.0 0.0 0.00 0.00 0.00 92 1017.5
20180821124743 78 261 0.0 0.0 0.00 0.00 0.00 92 1017.4
20180821124243 78 261 0.0 0.0 0.00 0.00 0.00 92 1017.3
20180821123744 77 261 0.0 0.0 0.00 0.00 0.00 92 1017.3
20180821123244 77 261 0.0 0.0 0.00 0.00 0.00 92 1017.2
20180821122743 77 261 0.0 0.0 0.00 0.00 0.00 92 1017.1
20180821122244 77 261 0.0 2.0 0.00 0.00 0.00 91 1017.0
20180821121743 77 261 1.0 4.0 0.00 0.00 0.00 91 1017.1
20180821121245 77 261 1.0 4.0 0.00 0.00 0.00 91 1017.1
20180821120745 77 261 0.0 0.0 0.00 0.00 0.00 91 1016.9
20180821120243 78 223 0.0 0.0 0.00 0.00 0.00 91 1016.9
20180821115741 78 223 0.0 0.0 0.00 0.00 0.00 90 1016.8
20180821115241 78 223 0.0 0.0 0.00 0.00 0.00 91 1016.7
20180821114741 79 223 0.0 0.0 0.00 0.00 0.00 91 1016.6
20180821114242 79 223 0.0 0.0 0.00 0.00 0.00 91 1016.6
20180821113742 78 223 0.0 0.0 0.00 0.00 0.00 91 1016.6
20180821113243 78 223 0.0 0.0 0.00 0.00 0.00 91 1016.6
20180821112741 78 223 0.0 0.0 0.00 0.00 0.00 91 1016.4
20180821112241 78 223 0.0 0.0 0.00 0.00 0.00 91 1016.4
20180821111741 78 223 0.0 0.0 0.00 0.00 0.00 91 1016.4
20180821111241 78 223 0.0 0.0 0.00 0.00 0.00 91 1016.4
20180821110739 78 223 0.0 0.0 0.00 0.00 0.00 91 1016.4
20180821110236 79 223 0.0 0.0 0.00 0.00 0.00 91 1016.5
20180821105735 79 223 0.0 0.0 0.00 0.00 0.00 91 1016.5
20180821105233 79 223 1.0 4.0 0.00 0.00 0.00 91 1016.4
20180821104732 79 223 2.0 5.0 0.00 0.00 0.00 91 1016.3
20180821104232 79 223 3.0 7.0 0.00 0.00 0.00 91 1016.1
20180821103730 79 210 4.0 7.0 0.00 0.00 0.00 91 1015.9
20180821103229 79 218 5.0 8.0 0.00 0.00 0.00 91 1016.0
20180821102727 79 230 5.0 9.0 0.00 0.00 0.00 91 1015.9
20180821102228 79 198 5.0 9.0 0.00 0.00 0.00 91 1015.9
20180821101727 79 215 5.0 9.0 0.00 0.00 0.00 91 1015.9
20180821101229 79 209 5.0 9.0 0.00 0.00 0.00 91 1015.9
20180821100725 80 189 5.0 9.0 0.00 0.00 0.00 91 1015.9
20180821100224 80 209 5.0 8.0 0.00 0.00 0.00 91 1015.9
20180821095723 80 203 5.0 8.0 0.00 0.00 0.00 91 1015.9
20180821095222 80 212 5.0 10.0 0.00 0.00 0.00 91 1015.8
20180821094721 80 191 6.0 10.0 0.00 0.00 0.00 91 1015.8
20180821094221 80 205 7.0 11.0 0.00 0.00 0.00 91 1015.8
20180821093722 79 198 7.0 11.0 0.00 0.00 0.00 91 1015.8
20180821093221 79 194 7.0 11.0 0.00 0.00 0.00 91 1015.8
20180821092722 79 192 7.0 11.0 0.00 0.00 0.00 91 1015.9
20180821092221 79 189 7.0 10.0 0.00 0.00 0.00 91 1016.0
20180821091720 79 192 7.0 10.0 0.00 0.00 0.00 91 1015.9
20180821091219 78 182 6.0 9.0 0.00 0.00 0.00 91 1015.9
20180821090717 78 194 6.0 8.0 0.00 0.00 0.00 91 1016.1
20180821090217 78 193 6.0 8.0 0.00 0.00 0.00 91 1016.1
20180821085717 78 188 6.0 8.0 0.00 0.00 0.00 91 1016.1
20180821085219 78 186 6.0 8.0 0.00 0.00 0.00 91 1016.0
20180821084712 78 190 5.0 8.0 0.00 0.00 0.00 91 1016.0
20180821084209 78 186 5.0 6.0 0.00 0.00 0.00 91 1016.1
20180821083708 78 194 4.0 6.0 0.00 0.00 0.00 91 1016.1
20180821083207 78 169 4.0 5.0 0.00 0.00 0.00 91 1016.3
20180821082705 78 169 4.0 6.0 0.00 0.00 0.00 91 1016.3
20180821082207 78 169 4.0 5.0 0.00 0.00 0.00 90 1016.3
20180821081705 78 169 2.0 4.0 0.00 0.00 0.00 90 1016.4
20180821081203 78 169 0.0 4.0 0.00 0.00 0.00 90 1016.3
20180821080704 78 169 0.0 0.0 0.00 0.00 0.00 90 1016.4
20180821080205 78 169 0.0 0.0 0.00 0.00 0.00 90 1016.3
20180821075659 78 169 0.0 0.0 0.00 0.00 0.00 90 1016.3
20180821075158 78 169 0.0 1.0 0.00 0.00 0.00 90 1016.3
20180821074656 78 169 0.0 1.0 0.00 0.00 0.00 90 1016.3
20180821074155 78 169 2.0 4.0 0.00 0.00 0.00 90 1016.3
20180821073656 78 169 2.0 4.0 0.00 0.00 0.00 90 1016.3
20180821073156 78 169 0.0 4.0 0.00 0.00 0.00 90 1016.3
20180821072656 78 169 0.0 0.0 0.00 0.00 0.00 90 1016.3
20180821072155 78 169 0.0 4.0 0.00 0.00 0.00 90 1016.3
20180821071652 78 169 0.0 4.0 0.00 0.00 0.00 90 1016.4
20180821071151 78 169 0.0 4.0 0.00 0.00 0.00 90 1016.4
20180821070650 78 169 1.0 4.0 0.00 0.00 0.00 90 1016.3
20180821070150 78 169 3.0 5.0 0.00 0.00 0.00 89 1016.2
20180821065651 78 169 4.0 5.0 0.00 0.00 0.00 89 1016.3
20180821065151 78 169 4.0 5.0 0.00 0.00 0.00 89 1016.3
20180821064651 78 169 3.0 5.0 0.00 0.00 0.00 89 1016.3
20180821064147 79 169 3.0 4.0 0.00 0.00 0.00 89 1016.3
20180821063646 79 169 3.0 5.0 0.00 0.00 0.00 89 1016.2
20180821063147 79 169 3.0 5.0 0.00 0.00 0.00 89 1016.2
20180821062640 79 169 4.0 5.0 0.00 0.00 0.00 89 1016.1
20180821062139 79 169 4.0 5.0 0.00 0.00 0.00 89 1016.1
20180821061639 79 169 3.0 5.0 0.00 0.00 0.00 88 1016.1
20180821061139 79 169 3.0 5.0 0.00 0.00 0.00 88 1016.1
20180821060637 79 169 3.0 5.0 0.00 0.00 0.00 88 1016.1
20180821060135 79 169 3.0 5.0 0.00 0.00 0.00 88 1016.1
20180821055635 79 169 4.0 5.0 0.00 0.00 0.00 88 1016.1
20180821055133 79 169 4.0 5.0 0.00 0.00 0.00 88 1016.0
20180821054635 79 169 4.0 5.0 0.00 0.00 0.00 88 1016.0
20180821054135 79 169 3.0 5.0 0.00 0.00 0.00 88 1016.0
20180821053633 79 169 3.0 5.0 0.00 0.00 0.00 88 1016.0
20180821053133 79 169 3.0 5.0 0.00 0.00 0.00 87 1015.9
20180821052630 79 169 3.0 4.0 0.00 0.00 0.00 87 1015.9
20180821052130 80 169 2.0 4.0 0.00 0.00 0.00 87 1015.9
20180821051631 80 169 3.0 4.0 0.00 0.00 0.00 87 1015.9
20180821051130 80 169 3.0 5.0 0.00 0.00 0.00 87 1015.8
20180821050631 80 169 4.0 6.0 0.00 0.00 0.00 87 1015.7
20180821050127 80 167 4.0 6.0 0.00 0.00 0.00 87 1015.6
20180821045626 80 167 4.0 6.0 0.00 0.00 0.00 87 1015.6
20180821045125 80 167 5.0 8.0 0.00 0.00 0.00 86 1015.6
20180821044627 80 172 5.0 8.0 0.00 0.00 0.00 86 1015.5
20180821044125 80 169 5.0 7.0 0.00 0.00 0.00 86 1015.6
20180821043623 80 188 5.0 7.0 0.00 0.00 0.00 86 1015.6
20180821043121 80 187 5.0 7.0 0.00 0.00 0.00 86 1015.6
20180821042619 80 186 5.0 7.0 0.00 0.00 0.00 85 1015.5
20180821042117 80 193 5.0 7.0 0.00 0.00 0.00 85 1015.5
20180821041616 81 183 4.0 6.0 0.00 0.00 0.00 84 1015.5
20180821041115 81 182 4.0 6.0 0.00 0.00 0.00 84 1015.5
20180821040614 81 183 4.0 6.0 0.00 0.00 0.00 84 1015.3
20180821040112 81 187 4.0 6.0 0.00 0.00 0.00 84 1015.3
20180821035612 81 188 4.0 5.0 0.00 0.00 0.00 83 1015.3
20180821035109 81 188 4.0 7.0 0.00 0.00 0.00 83 1015.4
20180821034607 82 188 5.0 8.0 0.00 0.00 0.00 83 1015.4
20180821034107 82 188 6.0 8.0 0.00 0.00 0.00 83 1015.4
20180821033606 82 190 5.0 8.0 0.00 0.00 0.00 82 1015.4
20180821033103 82 175 4.0 6.0 0.00 0.00 0.00 82 1015.4
20180821032603 82 169 4.0 5.0 0.00 0.00 0.00 81 1015.3
20180821032103 82 169 4.0 5.0 0.00 0.00 0.00 81 1015.2
20180821031600 83 181 3.0 5.0 0.00 0.00 0.00 81 1015.2
20180821031101 83 181 3.0 6.0 0.00 0.00 0.00 80 1015.1
20180821030559 83 181 3.0 6.0 0.00 0.00 0.00 80 1015.1
20180821030055 83 181 4.0 6.0 0.00 0.00 0.00 80 1015.0
20180821025556 83 181 4.0 6.0 0.00 0.00 0.00 79 1015.0
20180821025052 83 183 5.0 7.0 0.00 0.00 0.00 79 1014.9
20180821024552 83 181 5.0 9.0 0.00 0.00 0.00 79 1014.8
20180821024051 83 176 6.0 9.0 0.00 0.00 0.00 78 1014.6
20180821023548 83 169 6.0 9.0 0.00 0.00 0.00 78 1014.6
20180821023048 83 174 6.0 9.0 0.00 0.00 0.00 77 1014.4
20180821022545 84 183 6.0 8.0 0.00 0.00 0.00 77 1014.4
20180821022041 84 192 5.0 9.0 0.00 0.00 0.00 77 1014.3
20180821021541 84 182 6.0 9.0 0.00 0.00 0.00 76 1014.3
20180821021038 84 171 6.0 10.0 0.00 0.00 0.00 76 1014.2
20180821020538 84 182 6.0 10.0 0.00 0.00 0.00 75 1014.1
20180821020039 84 182 7.0 10.0 0.00 0.00 0.00 74 1014.0
20180821015539 85 178 7.0 10.0 0.00 0.00 0.00 74 1013.9
20180821015036 85 183 8.0 10.0 0.00 0.00 0.00 73 1013.8
20180821014535 85 192 8.0 11.0 0.00 0.00 0.00 72 1013.7
20180821014035 85 184 9.0 13.0 0.00 0.00 0.00 72 1013.8
20180821013532 85 172 10.0 14.0 0.00 0.00 0.00 72 1013.7
20180821013032 85 177 10.0 16.0 0.00 0.00 0.00 71 1013.7
20180821012531 86 163 9.0 16.0 0.00 0.00 0.00 70 1013.7
20180821012032 86 171 9.0 16.0 0.00 0.00 0.00 70 1013.6
20180821011530 86 175 11.0 16.0 0.00 0.00 0.00 69 1013.6
20180821011028 86 173 11.0 18.0 0.00 0.00 0.00 69 1013.5
20180821010528 86 161 12.0 18.0 0.00 0.00 0.00 69 1013.5
20180821010028 87 171 13.0 20.0 0.00 0.00 0.00 69 1013.4
20180821005528 87 169 13.0 20.0 0.00 0.00 0.00 69 1013.4
20180821005029 87 174 11.0 18.0 0.00 0.00 0.00 69 1013.4
20180821004527 87 189 10.0 19.0 0.00 0.00 0.00 68 1013.4
20180821004028 87 180 11.0 19.0 0.00 0.00 0.00 68 1013.5
20180821003526 88 169 12.0 20.0 0.00 0.00 0.00 67 1013.4
20180821003026 88 183 12.0 20.0 0.00 0.00 0.00 66 1013.3
20180821002526 88 171 12.0 19.0 0.00 0.00 0.00 66 1013.2
20180821002031 88 173 13.0 19.0 0.00 0.00 0.00 65 1013.2
20180821001523 89 174 13.0 20.0 0.00 0.00 0.00 64 1013.1
20180821001023 89 170 14.0 20.0 0.00 0.00 0.00 63 1013.0
20180821000524 90 159 14.0 22.0 0.00 0.00 0.00 62 1013.0
20180821000023 90 180 14.0 22.0 0.00 0.00 0.00 61 1013.0
20180820235521 90 189 14.0 22.0 0.00 0.00 0.00 61 1012.9
20180820235019 91 186 15.0 22.0 0.00 0.00 0.00 60 1013.1
20180820234521 91 161 15.0 22.0 0.00 0.00 0.00 59 1013.1
20180820234020 91 172 16.0 22.0 0.00 0.00 0.00 59 1013.1
20180820233520 91 168 16.0 22.0 0.00 0.00 0.00 58 1013.0
20180820233021 91 178 16.0 23.0 0.00 0.00 0.00 58 1013.1
20180820232520 92 194 16.0 23.0 0.00 0.00 0.00 56 1013.1
20180820232020 92 188 15.0 21.0 0.00 0.00 0.00 56 1013.0
20180820231521 92 200 14.0 21.0 0.00 0.00 0.00 56 1013.1
20180820231017 92 196 15.0 22.0 0.00 0.00 0.00 56 1013.0
20180820230518 93 193 16.0 22.0 0.00 0.00 0.00 55 1013.0
20180820230015 93 169 15.0 25.0 0.00 0.00 0.00 56 1013.0
20180820225517 93 155 15.0 25.0 0.00 0.00 0.00 55 1013.1
20180820225014 93 192 15.0 23.0 0.00 0.00 0.00 55 1013.0
20180820224514 93 156 16.0 22.0 0.00 0.00 0.00 55 1013.0
20180820224014 93 190 16.0 22.0 0.00 0.00 0.00 54 1013.1
20180820223513 94 178 16.0 21.0 0.00 0.00 0.00 55 1013.1
20180820223009 94 192 16.0 22.0 0.00 0.00 0.00 54 1013.0
20180820222510 94 172 16.0 24.0 0.00 0.00 0.00 54 1013.0
20180820222011 94 190 15.0 24.0 0.00 0.00 0.00 54 1013.1
20180820221510 95 184 13.0 24.0 0.00 0.00 0.00 52 1013.1
20180820221009 95 180 12.0 24.0 0.00 0.00 0.00 52 1013.0
20180820220503 95 143 12.0 23.0 0.00 0.00 0.00 52 1012.9
20180820220000 95 200 12.0 20.0 0.00 0.00 0.00 48 1012.9
20180820215458 95 223 12.0 20.0 0.00 0.00 0.00 47 1012.8
20180820215001 95 173 13.0 23.0 0.00 0.00 0.00 49 1012.8
20180820214459 96 188 13.0 23.0 0.00 0.00 0.00 48 1012.8
20180820213959 96 215 11.0 19.0 0.00 0.00 0.00 49 1012.7
20180820213455 96 221 12.0 19.0 0.00 0.00 0.00 49 1012.6
20180820212955 96 206 12.0 19.0 0.00 0.00 0.00 50 1012.8
20180820212451 96 157 11.0 18.0 0.00 0.00 0.00 49 1012.8
20180820211957 96 197 10.0 17.0 0.00 0.00 0.00 48 1012.9
20180820211450 96 204 11.0 17.0 0.00 0.00 0.00 48 1012.9
20180820210948 96 217 11.0 19.0 0.00 0.00 0.00 49 1012.9
20180820210446 96 215 11.0 19.0 0.00 0.00 0.00 49 1012.9
20180820205949 96 196 12.0 19.0 0.00 0.00 0.00 49 1013.0
20180820205447 96 214 14.0 20.0 0.00 0.00 0.00 49 1013.0
20180820204947 95 154 15.0 21.0 0.00 0.00 0.00 50 1013.2
20180820204445 96 192 15.0 22.0 0.00 0.00 0.00 50 1013.2
20180820203947 96 180 14.0 22.0 0.00 0.00 0.00 50 1013.3
20180820203443 96 163 15.0 24.0 0.00 0.00 0.00 50 1013.3
20180820202944 96 175 16.0 24.0 0.00 0.00 0.00 50 1013.3
20180820202439 96 144 16.0 22.0 0.00 0.00 0.00 50 1013.5
20180820201941 96 174 13.0 22.0 0.00 0.00 0.00 49 1013.6
20180820201438 97 169 11.0 20.0 0.00 0.00 0.00 49 1013.6
20180820200940 96 197 13.0 19.0 0.00 0.00 0.00 49 1013.6
20180820200434 96 166 13.0 22.0 0.00 0.00 0.00 49 1013.7
20180820195936 96 171 12.0 22.0 0.00 0.00 0.00 49 1013.7
20180820195433 96 212 10.0 19.0 0.00 0.00 0.00 47 1013.6
20180820194935 97 185 8.0 16.0 0.00 0.00 0.00 46 1013.7
20180820194434 97 178 7.0 13.0 0.00 0.00 0.00 45 1013.8
20180820193932 97 202 7.0 13.0 0.00 0.00 0.00 43 1013.8
20180820193431 97 246 6.0 12.0 0.00 0.00 0.00 44 1013.8
20180820192932 96 229 6.0 15.0 0.00 0.00 0.00 45 1013.9
20180820192426 97 194 6.0 15.0 0.00 0.00 0.00 46 1013.9